When you browse on this site, cookies collect data to enhance your experience and personalize the content and advertising you see.
Visit our Privacy Policy to learn more. By continuing to use the site, you agree to this use of cookies and data.
  • In Österreich
  • Länderverzeichnis
  • Für 7 Tage
  • Wassertemperatur
  • Wetterkarte
  • News
  • Widgets
  • user-avatar
    Anmelden

    Stündliche Wetter Newcastle

    Heute, 22 Januar, Mittwoch

    Zeit Temperatur Niederschläge Wind Luftdruck Luftfeuchtigkeit
    00:00 +21°C° 0 mm 2 m/S 757 mmHg 92%
    01:00 +20°C° 0 mm 2 m/S 757 mmHg 94%
    02:00 +20°C° 0 mm 2 m/S 757 mmHg 93%
    03:00 +21°C° 0 mm 1 m/S 757 mmHg 92%
    04:00 +21°C° 0 mm 1 m/S 756 mmHg 96%
    05:00 +22°C° 0 mm 1 m/S 757 mmHg 90%
    06:00 +23°C° 0 mm 1 m/S 757 mmHg 85%
    07:00 +24°C° 0 mm 1 m/S 758 mmHg 80%
    08:00 +27°C° 0 mm 1 m/S 757 mmHg 70%
    09:00 +30°C° 0 mm 1 m/S 757 mmHg 59%
    10:00 +32°C° 0 mm 1 m/S 757 mmHg 48%
    11:00 +34°C° 0 mm 2 m/S 756 mmHg 43%
    12:00 +35°C° 0 mm 3 m/S 756 mmHg 37%
    13:00 +36°C° 0 mm 4 m/S 755 mmHg 32%
    14:00 +36°C° 0 mm 4 m/S 755 mmHg 33%
    15:00 +36°C° 0 mm 5 m/S 754 mmHg 34%
    16:00 +36°C° 0 mm 5 m/S 754 mmHg 35%
    17:00 +34°C° 0 mm 5 m/S 754 mmHg 43%
    18:00 +32°C° 0 mm 6 m/S 754 mmHg 52%
    19:00 +29°C° 0 mm 6 m/S 754 mmHg 60%
    20:00 +27°C° 0 mm 5 m/S 755 mmHg 63%
    21:00 +26°C° 0 mm 5 m/S 755 mmHg 66%
    22:00 +25°C° 0 mm 5 m/S 755 mmHg 69%
    23:00 +23°C° 0 mm 4 m/S 754 mmHg 73%

    Morgen, 23 Januar, Donnerstag

    Zeit Temperatur Niederschläge Wind Luftdruck Luftfeuchtigkeit
    00:00 +22°C° 0 mm 4 m/S 754 mmHg 78%
    01:00 +21°C° 0 mm 3 m/S 754 mmHg 83%
    02:00 +21°C° 0 mm 3 m/S 753 mmHg 79%
    03:00 +21°C° 0 mm 3 m/S 753 mmHg 74%
    04:00 +20°C° 0 mm 3 m/S 753 mmHg 70%
    05:00 +22°C° 0 mm 3 m/S 753 mmHg 62%
    06:00 +25°C° 0 mm 3 m/S 754 mmHg 55%
    07:00 +26°C° 0 mm 3 m/S 754 mmHg 47%
    08:00 +30°C° 0 mm 4 m/S 754 mmHg 42%
    09:00 +35°C° 0 mm 4 m/S 754 mmHg 37%
    10:00 +40°C° 0 mm 5 m/S 753 mmHg 31%
    11:00 +41°C° 0 mm 5 m/S 753 mmHg 29%
    12:00 +42°C° 0 mm 6 m/S 752 mmHg 26%
    13:00 +44°C° 0 mm 6 m/S 751 mmHg 23%
    14:00 +42°C° 0 mm 6 m/S 751 mmHg 25%
    15:00 +41°C° 0 mm 5 m/S 751 mmHg 28%
    16:00 +40°C° 0 mm 5 m/S 751 mmHg 30%
    17:00 +37°C° 0 mm 5 m/S 751 mmHg 35%
    18:00 +35°C° 0 mm 5 m/S 751 mmHg 40%
    19:00 +33°C° 0 mm 4 m/S 752 mmHg 45%
    20:00 +33°C° 0 mm 4 m/S 752 mmHg 50%
    21:00 +32°C° 0 mm 4 m/S 753 mmHg 54%
    22:00 +30°C° 0 mm 4 m/S 753 mmHg 59%
    23:00 +29°C° 0 mm 3 m/S 753 mmHg 62%

    übermorgen, 24 Januar, Freitag

    Zeit Temperatur Niederschläge Wind Luftdruck Luftfeuchtigkeit
    00:00 +28°C° 0 mm 3 m/S 753 mmHg 64%
    01:00 +28°C° 0 mm 2 m/S 753 mmHg 67%
    02:00 +28°C° 0 mm 3 m/S 753 mmHg 67%
    03:00 +28°C° 0 mm 3 m/S 753 mmHg 66%
    04:00 +29°C° 0 mm 4 m/S 753 mmHg 66%
    05:00 +29°C° 0 mm 3 m/S 753 mmHg 64%
    06:00 +30°C° 0 mm 3 m/S 753 mmHg 62%
    07:00 +31°C° 0 mm 3 m/S 754 mmHg 60%
    08:00 +34°C° 0 mm 3 m/S 754 mmHg 55%
    09:00 +36°C° 0 mm 3 m/S 754 mmHg 49%
    10:00 +38°C° 0 mm 3 m/S 755 mmHg 43%
    11:00 +38°C° 0.4 mm 4 m/S 754 mmHg 42%
    12:00 +40°C° 0.4 mm 5 m/S 754 mmHg 42%
    13:00 +40°C° 0.4 mm 5 m/S 753 mmHg 41%
    14:00 +36°C° 2.2 mm 5 m/S 753 mmHg 55%
    15:00 +33°C° 2.2 mm 4 m/S 752 mmHg 68%
    16:00 +30°C° 2.2 mm 4 m/S 752 mmHg 81%
    17:00 +29°C° 0.1 mm 4 m/S 753 mmHg 83%
    18:00 +28°C° 0.1 mm 4 m/S 754 mmHg 86%
    19:00 +28°C° 0.1 mm 4 m/S 755 mmHg 88%
    20:00 +27°C° 0.1 mm 3 m/S 755 mmHg 91%
    21:00 +26°C° 0.1 mm 3 m/S 756 mmHg 94%
    22:00 +26°C° 0.1 mm 2 m/S 756 mmHg 97%
    23:00 +25°C° 0.1 mm 2 m/S 757 mmHg 97%

    25 Januar, Samstag

    Zeit Temperatur Niederschläge Wind Luftdruck Luftfeuchtigkeit
    00:00 +25°C° 0.1 mm 2 m/S 757 mmHg 97%
    01:00 +25°C° 0.1 mm 2 m/S 757 mmHg 97%
    02:00 +25°C° 0 mm 2 m/S 757 mmHg 97%
    03:00 +25°C° 0 mm 2 m/S 757 mmHg 97%
    04:00 +24°C° 0 mm 2 m/S 757 mmHg 97%
    05:00 +25°C° 0.1 mm 2 m/S 757 mmHg 95%
    06:00 +25°C° 0.1 mm 2 m/S 757 mmHg 93%
    07:00 +26°C° 0.1 mm 2 m/S 758 mmHg 92%
    08:00 +27°C° 0.2 mm 2 m/S 758 mmHg 88%
    09:00 +27°C° 0.2 mm 2 m/S 758 mmHg 85%
    10:00 +28°C° 0.2 mm 2 m/S 758 mmHg 82%
    11:00 +30°C° 0.1 mm 2 m/S 758 mmHg 74%
    12:00 +31°C° 0.1 mm 3 m/S 758 mmHg 66%
    13:00 +34°C° 0.1 mm 3 m/S 757 mmHg 58%
    14:00 +33°C° 0 mm 3 m/S 757 mmHg 61%
    15:00 +32°C° 0 mm 4 m/S 757 mmHg 64%
    16:00 +32°C° 0 mm 4 m/S 756 mmHg 67%
    17:00 +30°C° 0 mm 3 m/S 757 mmHg 74%
    18:00 +28°C° 0 mm 2 m/S 757 mmHg 81%
    19:00 +27°C° 0 mm 2 m/S 757 mmHg 88%
    20:00 +27°C° 0 mm 1 m/S 758 mmHg 91%
    21:00 +26°C° 0 mm 1 m/S 758 mmHg 93%
    22:00 +26°C° 0 mm 1 m/S 758 mmHg 96%
    23:00 +26°C° 0 mm 1 m/S 758 mmHg 96%

    26 Januar, Sonntag

    Zeit Temperatur Niederschläge Wind Luftdruck Luftfeuchtigkeit
    00:00 +26°C° 0 mm 1 m/S 758 mmHg 97%
    01:00 +25°C° 0 mm 1 m/S 757 mmHg 98%
    02:00 +25°C° 0 mm 1 m/S 757 mmHg 98%
    03:00 +25°C° 0 mm 1 m/S 757 mmHg 97%
    04:00 +25°C° 0 mm 1 m/S 757 mmHg 97%
    05:00 +26°C° 0 mm 1 m/S 757 mmHg 94%
    06:00 +26°C° 0 mm 1 m/S 758 mmHg 92%
    07:00 +27°C° 0 mm 1 m/S 758 mmHg 89%
    08:00 +29°C° 0 mm 1 m/S 758 mmHg 80%
    09:00 +31°C° 0 mm 1 m/S 758 mmHg 71%
    10:00 +32°C° 0 mm 1 m/S 758 mmHg 63%
    11:00 +35°C° 0 mm 2 m/S 758 mmHg 58%
    12:00 +36°C° 0 mm 3 m/S 757 mmHg 54%
    13:00 +38°C° 0 mm 4 m/S 757 mmHg 49%
    14:00 +36°C° 0.2 mm 5 m/S 756 mmHg 54%
    15:00 +35°C° 0.2 mm 6 m/S 756 mmHg 59%
    16:00 +33°C° 0.2 mm 7 m/S 756 mmHg 63%
    17:00 +30°C° 2 mm 6 m/S 756 mmHg 71%
    18:00 +28°C° 2 mm 6 m/S 757 mmHg 79%
    19:00 +26°C° 2 mm 5 m/S 757 mmHg 86%
    20:00 +26°C° 0.1 mm 4 m/S 757 mmHg 87%
    21:00 +25°C° 0.1 mm 3 m/S 758 mmHg 88%
    22:00 +24°C° 0.1 mm 2 m/S 758 mmHg 88%
    23:00 +24°C° 0 mm 2 m/S 758 mmHg 90%

    27 Januar, Montag

    Zeit Temperatur Niederschläge Wind Luftdruck Luftfeuchtigkeit
    00:00 +23°C° 0 mm 2 m/S 757 mmHg 92%
    01:00 +23°C° 0 mm 1 m/S 757 mmHg 94%
    02:00 +23°C° 0 mm 1 m/S 757 mmHg 94%
    03:00 +23°C° 0 mm 1 m/S 757 mmHg 95%
    04:00 +23°C° 0 mm 1 m/S 757 mmHg 95%
    05:00 +23°C° 0 mm 2 m/S 758 mmHg 91%
    06:00 +24°C° 0 mm 2 m/S 758 mmHg 87%
    07:00 +25°C° 0 mm 2 m/S 758 mmHg 83%
    08:00 +28°C° 0 mm 2 m/S 758 mmHg 73%
    09:00 +31°C° 0 mm 2 m/S 758 mmHg 63%
    10:00 +34°C° 0 mm 2 m/S 758 mmHg 53%
    11:00 +35°C° 0 mm 3 m/S 757 mmHg 49%
    12:00 +37°C° 0 mm 4 m/S 757 mmHg 46%
    13:00 +39°C° 0 mm 5 m/S 756 mmHg 43%
    14:00 +36°C° 1.9 mm 5 m/S 755 mmHg 52%
    15:00 +34°C° 1.9 mm 6 m/S 755 mmHg 61%
    16:00 +32°C° 1.9 mm 7 m/S 755 mmHg 69%
    17:00 +30°C° 3 mm 6 m/S 755 mmHg 71%
    18:00 +30°C° 3 mm 6 m/S 755 mmHg 72%
    19:00 +29°C° 3 mm 5 m/S 755 mmHg 73%
    20:00 +28°C° 1 mm 4 m/S 756 mmHg 78%
    21:00 +27°C° 1 mm 4 m/S 756 mmHg 83%
    22:00 +26°C° 1 mm 3 m/S 756 mmHg 88%
    23:00 +26°C° 0 mm 3 m/S 756 mmHg 88%
    Mehr zeigen